Weather History for Newark, NJ

Change the Weather History Date:

Wednesday, May 15, 2013

  Actual Average Record
Temperature  
Mean Temperature 61 °F 62 °F  
Max Temperature 74 °F 72 °F 89 °F (1957)
Min Temperature 48 °F 53 °F 40 °F (1939)
Degree Days  
Heating Degree Days 4 4  
Month to date heating degree days 98 89  
Since 1 July heating degree days 4588 4809  
Cooling Degree Days 0 2  
Month to date cooling degree days 6 17  
Year to date cooling degree days 9 29  
Growing Degree Days 10 (Base 50)    
Moisture  
Dew Point 47 °F    
Average Humidity 56    
Maximum Humidity 67    
Minimum Humidity 44    
Precipitation  
Precipitation T in 0.13 in 0.76 in (1981)
Month to date precipitation 3.55 1.86  
Year to date precipitation 14.36 16.66  
Snow  
Snow 0.00 in 0.00 in 0.00 in (2002)
Month to date snowfall 0.0 0.0  
Since 1 July snowfall 29.5 28.5  
Snow Depth 0.00 in    
Sea Level Pressure  
Sea Level Pressure 29.87 in    
Wind  
Wind Speed 8 mph (South)    
Max Wind Speed 20 mph    
Max Gust Speed 24 mph    
Visibility 10 miles    
Events Rain    
T = Trace of Precipitation, MM = Missing Value Source: NWS Daily Summary

Daily Weather History Graph

Daily Weather History Graph

Search for Another Location

Airport:

Trip Planner

Search our weather history database for the weather conditions in past years. The results will help you decide how hot, cold, wet, or windy it might be!

Date:

Astronomy

May. 15, 2013 Rise Set
Actual Time 5:39 AM EDT 8:07 PM EDT
Civil Twilight 5:08 AM EDT 8:38 PM EDT
Nautical Twilight 4:29 AM EDT 9:17 PM EDT
Astronomical Twilight 3:46 AM EDT 10:00 PM EDT
Moon 10:12 AM EDT (5/15) No Moon Set
Length of Visible Light 15h 29m
Length of Day
14h 27m
Waxing Crescent, 26% of the Moon is Illuminated
May 15
Waxing Crescent
May 18
First Quarter
May 25
Full
May 31
Last Quarter
Jun 8
New

Hourly Weather History & Observations

Time (EDT) Temp. Dew Point Humidity Pressure Visibility Wind Dir Wind Speed Gust Speed Precip Events Conditions
12:51 AM 51.1 °F 30.0 °F 44% 30.07 in 10.0 mi SW 6.9 mph - N/A   Scattered Clouds
1:51 AM 50.0 °F 30.0 °F 46% 30.06 in 10.0 mi WSW 6.9 mph - N/A   Partly Cloudy
2:51 AM 48.9 °F 33.1 °F 54% 30.05 in 10.0 mi SSW 4.6 mph - N/A   Partly Cloudy
3:51 AM 51.8 °F 33.8 °F 50% 30.05 in 10.0 mi SW 3.5 mph - N/A   Mostly Cloudy
4:51 AM 51.1 °F 37.0 °F 59% 30.04 in 10.0 mi South 4.6 mph - N/A   Overcast
5:51 AM 51.1 °F 39.0 °F 63% 30.03 in 10.0 mi SSW 4.6 mph - N/A   Overcast
6:51 AM 53.1 °F 43.0 °F 69% 30.04 in 10.0 mi South 5.8 mph - N/A   Overcast
7:51 AM 55.9 °F 44.1 °F 64% 30.02 in 10.0 mi South 5.8 mph - N/A   Mostly Cloudy
8:51 AM 59.0 °F 42.1 °F 53% 30.00 in 10.0 mi SSE 9.2 mph - N/A   Mostly Cloudy
9:51 AM 62.1 °F 42.1 °F 48% 29.96 in 10.0 mi SSE 11.5 mph - N/A   Mostly Cloudy
10:51 AM 61.0 °F 45.0 °F 56% 29.95 in 10.0 mi SE 10.4 mph 18.4 mph 0.00 in Rain Light Rain
11:51 AM 60.1 °F 46.0 °F 60% 29.94 in 10.0 mi SE 9.2 mph - 0.00 in Rain Light Rain
12:51 PM 60.1 °F 50.0 °F 69% 29.89 in 10.0 mi SE 11.5 mph 17.3 mph 0.00 in   Mostly Cloudy
1:51 PM 62.1 °F 52.0 °F 70% 29.88 in 10.0 mi SSE 6.9 mph - N/A   Overcast
2:51 PM 64.0 °F 53.1 °F 67% 29.83 in 9.0 mi ESE 4.6 mph - 0.00 in Rain Light Rain
3:51 PM 66.9 °F 54.0 °F 63% 29.75 in 10.0 mi SSE 10.4 mph - 0.00 in   Mostly Cloudy
4:51 PM 69.1 °F 54.0 °F 58% 29.71 in 10.0 mi SSE 5.8 mph - N/A   Mostly Cloudy
5:51 PM 70.0 °F 55.0 °F 59% 29.70 in 10.0 mi East 4.6 mph - N/A   Mostly Cloudy
6:51 PM 73.9 °F 55.9 °F 53% 29.69 in 10.0 mi SW 15.0 mph 21.9 mph N/A   Mostly Cloudy
7:06 PM 73.4 °F 55.4 °F 53% 29.68 in 10.0 mi SSW 12.7 mph - N/A   Mostly Cloudy
7:51 PM 72.0 °F 55.0 °F 55% 29.68 in 10.0 mi SW 16.1 mph 24.2 mph N/A   Scattered Clouds
8:51 PM 71.1 °F 55.9 °F 59% 29.69 in 10.0 mi SW 13.8 mph - N/A   Scattered Clouds
9:51 PM 70.0 °F 57.0 °F 63% 29.70 in 10.0 mi SW 9.2 mph - N/A   Mostly Cloudy
10:51 PM 70.0 °F 57.0 °F 63% 29.72 in 10.0 mi NW 5.8 mph - 0.00 in Rain Light Rain
11:51 PM 69.1 °F 57.0 °F 65% 29.73 in 10.0 mi WSW 4.6 mph - 0.00 in   Mostly Cloudy